Location: Killam
(52.7910°N, 111.8608°W)
Time: 10:20:54
(UTC+00:00)

FENGYUN 1C DEB - Pass Details

Date: 02 June 2024
Orbit: 795 x 992 km, 98.4° (Epoch: 16 June)

Event Time Altitude Azimuth Distance (km) Brightness Sun altitude
Rises 05:56:53 0° 15° (NNE) 3,337 ? -12.5°
Reaches altitude 10° 05:59:11 10° 17° (NNE) 2,417 ? -12.6°
Maximum altitude 06:04:33 81° 104° (ESE) 856 ? -12.9°
Enters shadow 06:09:27 14° 192° (SSW) 2,249 ? -13.1°
